Regional Weather Roundup
Issued by NWS

Home | Current Version | Previous Version | Text Only | Print | Product List | Glossary Off
Versions: 1 2 3 4 5 6 7 8 9 10 11 12 13 14 15 16 17 18 19 20 21 22 23 24 25 26 27 28 29 30 31 32 33 34 35 36 37 38 39 40 41 42 43 44 45 46 47 48 49 50

000
ASUS43 KIND 012109
RWRIN

WEATHER ROUNDUP FOR INDIANA
NATIONAL WEATHER SERVICE INDIANAPOLIS IN
500 PM EDT WED APR 01 2015

NOTE: "FAIR" INDICATES FEW OR NO CLOUDS BELOW 12,000 FEET WITH NO
SIGNIFICANT WEATHER AND/OR OBSTRUCTIONS TO VISIBILITY.

* - STATION DOES NOT REPORT WEATHER SUCH AS PRECIPITATION OR FOG.

+ - STATION NOT QUALITY CONTROLLED BY THE NATIONAL WEATHER SERVICE.
    USE DATA WITH CAUTION...ESPECIALLY DEWPOINT AND RELATIVE
    HUMIDITY OBSERVATIONS.

INZ001>003-010>013-019-020-012200-
NORTHWEST INDIANA

CITY           SKY/WX    TMP DP  RH WIND       PRES   REMARKS
GARY /AIRPORT/ MOSUNNY   73  23  15 S14G25    29.95F
KNOX *+        SUNNY     70 -13   3 S10       29.98F
LA PORTE +     SUNNY     72  35  26 S14       29.98F
MICHIGAN CITY+ SUNNY     70  27  19 SW14      29.97F
MONTICELLO +   SUNNY     69  37  31 S10       30.00F
RENSSELAER +   SUNNY     70  37  30 S14       29.99F
VALPARAISO     SUNNY     70  35  27 S14G21    29.97F

$$

LMZ046-743>745-012200-
SOUTHERN LAKE MICHIGAN

STATION/POSITION TIME  TEMP WIND        PRES
                       AIR  DIR/SP/G
                 (UTC) (F)  (DEG/KT/KT) (MB)
BURNS HARBOR     2100   68  190/ 11/ 21 1014.9S
MICHIGAN CITY    2100       150/ 10/ 14   N/A

$$

INZ004-005-014>016-021>024-012200-
NORTH CENTRAL INDIANA

CITY           SKY/WX    TMP DP  RH WIND       PRES   REMARKS
ELKHART        SUNNY     68  21  17 S7        30.00F
GOSHEN         SUNNY     68  37  32 S13       30.00F
LOGANSPORT +   SUNNY     68  32  26 S12       30.03S
PERU/GRISSOM   SUNNY     69  36  29 S13       30.02F
ROCHESTER +    SUNNY     72  34  25 S10       30.02S
SOUTH BEND     SUNNY     70  31  23 VRB6G17   29.98F
WARSAW +       SUNNY     68  34  28 CALM      30.01F

$$

INZ006>009-017-018-025>027-012200-
NORTHEAST INDIANA

CITY           SKY/WX    TMP DP  RH WIND       PRES   REMARKS
ANGOLA *+      SUNNY     66  36  32 SW6       30.01F
AUBURN +       SUNNY     68  32  26 SW5       30.03F
FORT WAYNE     MOSUNNY   67  34  29 SW6       30.04F
HUNTINGTON +   SUNNY     66  25  21 CALM      30.03F

$$

INZ028-029-035-036-043>045-051>053-012200-
WEST CENTRAL INDIANA

CITY           SKY/WX    TMP DP  RH WIND       PRES   REMARKS
CRAWFORDSVL +  SUNNY     68  25  19 S12       30.02F
GREENCASTLE +  SUNNY     68  28  22 SE13      30.03F
LAFAYETTE      SUNNY     69  35  28 S10G17    30.00F
TERRE HAUTE    MOSUNNY   69  37  30 S15       30.02F

$$

INZ030>032-037>040-046>048-054>057-064-065-012200-
CENTRAL INDIANA

CITY           SKY/WX    TMP DP  RH WIND       PRES   REMARKS
CP ATTERBURY + SUNNY     68  32  26 S8        30.06F
COLUMBUS       SUNNY     66  25  20 S12       30.06F
FISHERS *+     SUNNY     66  41  39 S10       30.04F
FRANKFORT +    SUNNY     69  37  29 SE12G18   30.04F
GREENWOOD *+   SUNNY     68  28  22 S8        30.05F
INDIANAPOLIS   MOSUNNY   68  33  27 SE15G21   30.02F
-EAGLE CREEK   SUNNY     67  32  27 SE9       30.03F
KOKOMO *+      SUNNY     66  37  34 S13       30.03F
MARION +       SUNNY     66  31  26 S9        30.04F
MT COMFORT *+  SUNNY     68  14  12 S10G17    30.06F
SHELBYVILLE    SUNNY     68  36  30 S14       30.05F
ZIONSVILLE +   SUNNY     68  31  25 S13       30.04F

$$

INZ033-034-041-042-049-050-058-059-012200-
EAST CENTRAL INDIANA

CITY           SKY/WX    TMP DP  RH WIND       PRES   REMARKS
MUNCIE         SUNNY     67  32  27 S9        30.04F

$$

INZ060-061-067>069-081>083-085>088-012200-
SOUTHWEST INDIANA

CITY           SKY/WX    TMP DP  RH WIND       PRES   REMARKS
EVANSVILLE     MOSUNNY   72  37  28 SE10      30.02F
HUNTINGBURG *+ SUNNY     72  36  26 SE13      30.03F
WASHINGTON +   MOSUNNY   70  30  22 SE13      30.02F

$$

INZ062-063-066-070>080-084-089>092-012200-
SOUTH CENTRAL AND SOUTHEAST INDIANA

CITY           SKY/WX    TMP DP  RH WIND       PRES   REMARKS
BEDFORD +      MOSUNNY   68  28  22 S10       30.05F
BLOOMINGTON    MOSUNNY   68  32  26 SE10      30.04F
MADISON *+     SUNNY     68  25  19 E5        30.09F
NORTH VERNON + SUNNY     68  30  24 S7        30.08F
SEYMOUR +      SUNNY     70  39  32 S8G16     30.06F

$$



USA.gov is the U.S. government's official web portal to all federal, state and local government web resources and services.